Flag for Ukraine Weather past 2 weeks in Luhansk, Ukraine

Now
50 °F

Passing clouds.


Feels Like: 46 °F
Forecast: 31 / 54 °F
Wind: 10 mph from North

Location: Rostov-Na-Donu

Current Time: Oct 2, 2014 at 12:21:42 PM

Latest Report: Oct 2, 2014 at 12:00 PM


Visibility: N/A

Pressure: 30.39 "Hg

Humidity: 43%

Dew point: 28 °F

Location of LuhanskLocation

Historic Weather in Luhansk — Graph

°F

Luhansk temperature yesterday

Maximum temperature yesterday: 63 °F (at 11:30 AM)
Minimum temperature yesterday: 46 °F (at 11:00 PM)
Average temperature yesterday: 57 °F

Past Weeks' High & Low Weather Summary

 TemperatureHumidityPressure
High73 °F (Sep 23, 2:00 PM)100% (Sep 25, 11:00 AM)30.42 "Hg (Sep 25, 11:00 AM)
Low39 °F (Oct 2, 5:00 AM)20% (Sep 18, 3:00 PM)29.27 "Hg (Sep 24, 10:00 AM)
Average56 °F64%30.02 "Hg
* Reported Sep 17 11:00 AM — Oct 2 11:00 AM, Luhansk, Weather by CustomWeather, © 2014

Note: Actual official high and low records may vary slightly from our data, if they occured in-between our weather recording intervals... More about our weather records

Advertising

Luhansk weather history for previous 24 hours

 ConditionsComfort  
Time TempWeatherWind HumidityBarometerVisibility
11:00 AM
Oct 2
50 °FPassing clouds.8 mph43%30.42 "HgN/A
10:30 AM50 °FPassing clouds.8 mph43%30.42 "HgN/A
10:00 AM48 °FPassing clouds.8 mph50%30.42 "HgN/A
9:30 AM48 °FPassing clouds.8 mph50%30.42 "HgN/A
9:00 AM46 °FSunny.10 mph53%30.42 "Hg10 mi
8:30 AM45 °FSunny.8 mph61%30.39 "Hg10 mi
8:00 AM43 °FSunny.8 mph66%30.39 "Hg10 mi
7:30 AM41 °FSunny.8 mph76%30.36 "Hg10 mi
7:00 AM39 °FClear.8 mph81%30.36 "Hg10 mi
6:30 AM39 °FClear.6 mph81%30.36 "Hg10 mi
6:00 AM39 °FClear.6 mph81%30.33 "Hg10 mi
5:30 AM39 °FClear.6 mph81%30.33 "Hg10 mi
5:00 AM39 °FClear.6 mph81%30.33 "Hg10 mi
4:30 AM41 °FClear.6 mph81%30.33 "Hg10 mi
4:00 AM41 °FClear.6 mph76%30.30 "Hg10 mi
3:30 AM41 °FClear.6 mph81%30.30 "Hg10 mi
3:00 AM43 °FClear.6 mph76%30.30 "Hg10 mi
2:30 AM43 °FClear.3 mph76%30.30 "Hg10 mi
2:00 AM43 °FClear.6 mph76%30.27 "Hg10 mi
1:30 AM43 °FClear.6 mph76%30.27 "Hg10 mi
1:00 AM45 °FClear.6 mph71%30.27 "Hg10 mi
12:30 AM45 °FClear.6 mph71%30.27 "Hg10 mi
12:00 AM46 °FClear.3 mph66%30.27 "Hg10 mi
11:30 PM
Oct 1
46 °FClear.3 mph66%30.24 "Hg10 mi
11:00 PM46 °FPassing clouds.3 mph66%30.24 "HgN/A
10:30 PM48 °FClear.6 mph62%30.24 "Hg10 mi
10:00 PM50 °FClear.8 mph62%30.24 "Hg10 mi
9:30 PM50 °FClear.6 mph62%30.21 "Hg10 mi
9:00 PM52 °FClear.8 mph58%30.21 "Hg10 mi
8:30 PM52 °FPassing clouds.8 mph58%30.18 "HgN/A
8:00 PM54 °FClear.8 mph54%30.18 "Hg10 mi
7:30 PM54 °FClear.6 mph54%30.15 "Hg10 mi
7:00 PM54 °FSunny.6 mph51%30.15 "Hg10 mi
6:30 PM55 °FPassing clouds.6 mph47%30.12 "HgN/A
6:00 PM57 °FScattered clouds.8 mph41%30.12 "HgN/A
5:30 PM59 °FPartly sunny.6 mph36%30.09 "HgN/A
5:00 PM59 °FBroken clouds.13 mph36%30.09 "HgN/A
4:30 PM61 °FBroken clouds.13 mph36%30.07 "HgN/A
4:00 PM61 °FBroken clouds.13 mph34%30.07 "HgN/A
3:30 PM61 °FBroken clouds.13 mph36%30.07 "HgN/A
3:00 PM63 °FScattered clouds.15 mph32%30.04 "HgN/A
2:30 PM63 °FScattered clouds.15 mph32%30.04 "HgN/A
2:00 PM63 °FScattered clouds.13 mph34%30.04 "HgN/A
1:30 PM63 °FPartly sunny.15 mph34%30.04 "HgN/A
1:00 PM63 °FPartly sunny.15 mph39%30.04 "HgN/A
12:30 PM63 °FBroken clouds.10 mph37%30.04 "HgN/A
12:00 PM63 °FBroken clouds.13 mph42%30.04 "HgN/A
Weather by CustomWeather, © 2014

See weather overviewHow to use our weather pages